Regional Weather Roundup
Issued by NWS Upton, NY

Current Version | Previous Version | Text Only | Print | Product List | Glossary Off
Versions: 1 2 3 4 5 6 7 8 9 10 11 12 13 14 15 16 17 18 19 20 21 22 23 24 25 26 27 28 29 30 31 32 33 34 35 36 37 38 39 40 41 42 43 44 45 46 47 48 49 50
000 ASUS41 KOKX 160008 RWROKX REGIONAL WEATHER ROUNDUP NATIONAL WEATHER SERVICE NEW YORK NY 700 PM EST SUN JAN 15 2017 NOTE: "FAIR" INDICATES FEW OR NO CLOUDS BELOW 12,000 FEET WITH NO SIGNIFICANT WEATHER AND/OR OBSTRUCTIONS TO VISIBILITY. NYZ071-072-176-178-NJZ106-104-160100- NEW YORK CITY METRO AREA CITY SKY/WX TMP DP RH WIND PRES REMARKS Central Park CLEAR 36 20 52 NW3 30.40R Wall St Helipt CLEAR 37 21 52 VRB3 30.39R Bronx Bot Gard NOT AVBL LaGuardia APRT PTCLDY 38 21 50 NW9 30.38R WCI 31 Kennedy INTL PTCLDY 37 19 48 N7 30.39R WCI 32 Breezy Point N/A 36 N/A N/A NW8 N/A WCI 29 Newark/Liberty MOCLDY 36 20 52 NW7 30.38S WCI 30 Teterboro CLEAR 35 21 56 NW6 30.37S WCI 30 $$ NYZ177-179-078>081-160100- LONG ISLAND NEW YORK CITY SKY/WX TMP DP RH WIND PRES REMARKS Jones Beach N/A 36 N/A N/A CALM N/A Matinecock PT NOT AVBL Farmingdale CLEAR 34 22 61 CALM 30.38R MacArthur/ISP PTCLDY 29 22 75 CALM 30.37R Shirley CLEAR 27 23 85 CALM 30.38R Westhampton CLEAR 22 17 81 CALM 30.38R Southampton NOT AVBL Bridgehampton NOT AVBL East Hampton N/A 24 18 80 CALM 30.36R Montauk N/A 31 23 72 CALM 30.37R $$ NYZ052-065-067-160100- HUDSON VALLEY CITY SKY/WX TMP DP RH WIND PRES REMARKS White Plains CLEAR 32 19 58 W7 30.35R WCI 26 Newburgh CLEAR 30 23 74 W9 30.36R WCI 22 Montgomery CLEAR 31 19 61 W8 30.35R WCI 23 Poughkeepsie CLEAR 26 19 74 CALM 30.36R Albany CLEAR 29 15 56 W9 30.37S WCI 20 $$ NJZ001-105-106-008-010-013-015-019>022-104-160100- NEW JERSEY CITY SKY/WX TMP DP RH WIND PRES REMARKS Newark/Liberty MOCLDY 36 20 52 NW7 30.38S WCI 30 Teterboro CLEAR 35 21 56 NW6 30.37S WCI 30 Caldwell CLEAR 30 20 66 CALM 30.39R Somerville CLEAR 26 20 77 N3 30.37R Linden N/A 34 20 58 N5 30.39R WCI 29 Sussex CLEAR 30 18 60 CALM 30.37R Andover N/A 26 18 71 N3 30.36S Trenton CLEAR 31 20 63 NW5 30.38R WCI 26 Millville PTCLDY 28 26 92 CALM 30.39R Atlantic City CLEAR 32 22 66 CALM 30.39R Wrightstown CLOUDY 31 21 67 W5 30.37R WCI 26 Toms River PTCLDY 28 22 78 NW3 30.40R Belmar CLEAR 31 23 72 SW6 30.40R WCI 25 $$ PAZ047>061-062-071-160100- EASTERN PENNSYLVANIA CITY SKY/WX TMP DP RH WIND PRES REMARKS Philadelphia MOCLDY 35 21 56 N8 30.41R WCI 29 Allentown CLEAR 28 16 60 CALM 30.39R Scranton CLOUDY 25 19 78 E3 30.35F $$ CTZ002-004>006-009-010-012-RIZ004-006-007-MAZ004-011-015-160100- SOUTHERN NEW ENGLAND IN CT CITY SKY/WX TMP DP RH WIND PRES REMARKS Bradley INTL CLEAR 29 15 56 NW6 30.36R WCI 23 Hartford CLEAR 34 13 41 N6 30.36R WCI 29 Danbury CLEAR 25 18 74 SW3 30.36R Wtrbury/Oxford CLEAR 30 12 47 CALM 30.33S Bridgeport CLEAR 32 20 61 NW3 30.37R Meriden CLEAR 27 18 69 CALM 30.36R New Haven CLEAR 25 17 72 CALM 30.36R Chester N/A 32 14 47 NW5 30.34R WCI 27 Groton CLEAR 27 18 69 NE3 30.35R Wilimantic CLEAR 28 19 69 CALM 30.36R IN RI CITY SKY/WX TMP DP RH WIND PRES REMARKS Providence CLEAR 32 15 49 W5 30.36R WCI 27 Block Island NOT AVBL Westerly CLEAR 28 16 60 CALM 30.36R IN MA CITY SKY/WX TMP DP RH WIND PRES REMARKS Boston CLEAR 30 14 51 N7 30.37R WCI 23 Worcester CLEAR 26 11 52 W6 30.31R WCI 19 Westfield CLEAR 24 16 71 CALM 30.35R Provincetown CLEAR 34 16 47 N12 30.36R WCI 25 Nantucket CLEAR 32 18 56 N9 30.35R WCI 24 $$ ANZ330-335-338-340-345-350-353-355-160100- COASTAL MARINE OBSERVATIONS STATION/POSITION TIME SKY/WX TEMP WIND PRES VSBY WAVE AIR SEA DIR/SP/G HT/PER (UTC) (F) (DEG/KT/KT) (MB) (MI) (FT/S) NY HARB ENTRANCE 2250 39 44 300/ 10/ 12 1028.3 2/11 20 S FIRE ISLAND 2350 38 45 350/ 8/ 12 1028.2 2/11 GREAT SOUTH BAY NOT AVBL 23 SSW MONTAUK P 2250 38 47 300/ 6/ 10 1028.1 2/11 15 E BARNEGAT LI 2330 45 N/A 2/11 HUDSON CANYON 2250 41 53 1027.8 3/ 5 KINGS POINT 2330 37 38 1028.3 EXECUTION ROCKS 2345 37 290/ 8/ 12 N/A CENTRAL LI SOUND 2315 39 360/ 6/ 8 N/A 1 EASTERN LI SOUND NOT AVBL ROBBINS REEF 2330 36 330/ 6/ 9 1028.6 $$ >>>>>>>>>>>>>>>>>>>>>>>>>>>> KEY <<<<<<<<<<<<<<<<<<<<<<<<<<< > < > SKY/WX - Sky Condition/Present Weather < > TMP - Temperature in Fahrenheit < > DP - Dew Point in Fahrenheit < > RH - Relative Humidity in Percent < > WIND - Direction (from) and Speed in MPH < > PRES - Mean Sea Level Pressure (inches of Hg) < > WCI - Wind Chill Index < > VSB - VISIBILITY IN MILES < > HX - HEAT INDEX < > TC - TEMPERATURE IN CELSIUS < > VRB - VARIABLE WIND DIRECTION < > < >>>>>>>>>>>>>>>>>>>>>>>>>>>> KEY <<<<<<<<<<<<<<<<<<<<<<<<<<<

USA.gov is the U.S. government's official web portal to all federal, state and local government web resources and services.